Location: Beaurevoir
(49.9971°N, 3.3085°E)
Time: 10:11:37
(UTC+00:00)

Cosmos 2322 Rocket - Pass Details

Date: 23 May 2024
Orbit: 832 x 850 km, 71.0° (Epoch: 14 June)

Event Time Altitude Azimuth Distance (km) Brightness Sun altitude
Rises 02:34:35 0° 326° (NW) 3,402 5.6 -9.9°
Reaches altitude 10° 02:37:08 10° 319° (NW) 2,466 4.7 -9.6°
Maximum altitude 02:42:22 40° 252° (WSW) 1,219 2.7 -9.0°
Drops below altitude 10° 02:47:37 10° 184° (S) 2,461 4.2 -8.5°
Sets 02:50:10 0° 177° (S) 3,394 4.9 -8.2°
